User: anonymous   Login
Location: Bremen
(53.0793°N, 8.8017°E)
Time: 01:43:42
(UTC+01:00)
Language:

Explorer 11/Cluster Stage 4 - Orbit

View from above orbital plane
View from above orbital plane
View from above satellite
View from above satellite

Ground track
Ground track

The orbit data is extracted from the following two-line orbital elements,

1 00107U 61013A   21331.61102920  .00001349  00000-0  15920-3 0  9997
2 00107  28.7913  77.7018 0544791 251.5752 102.4861 14.09446705 40799
Epoch (UTC): 27 November 2021 14:39:52
Eccentricity: 0.0544791
inclination: 28.7913°
perigee height: 467 km
apogee height: 1255 km
right ascension of ascending node: 77.7018°
argument of perigee: 251.5752°
revolutions per day: 14.09446705
mean anomaly at epoch: 102.4861°
orbit number at epoch: 4079

The dashed part of the orbit path shows where the satellite is in the earth's shadow,  

DLR